Wind_Speed
5 5 7 6 5 5 7 7 7 8 9 8 7 7 7 7 7 5 3 6 6 6 6 5 6 6 5 4 8 12 12 13 14 14 14 13 11 10 9 12 17 21 22 22 21 19 19 20 20 19 19 18 16 14 11 8 6 5 4 3 2 1 3 6 8 11 13 15 14 9 5 3 3 4 5 6 7 8 8 10 12 14 16 17 18 19
4 5 6 6 7 8 8 7 6 8 9 9 9 9 9 9 8 5 3 5 5 7 7 5 7 9 7 6 7 9 9 12 14 14 16 14 12 11 9 9 15 20 23 22 21 19 20 20 21 21 20 19 18 16 12 9 8 6 5 5 4 2 3 5 8 10 12 15 16 10 5 3 2 3 4 4 4 5 6 7 8 10 12 13 15 16
6 6 6 6 7 7 6 5 6 6 7 9 10 9 10 9 7 5 5 6 5 7 7 5 8 10 9 8 8 7 6 10 15 16 17 16 14 13 10 9 12 18 23 24 22 21 21 21 20 21 22 21 20 18 15 12 10 8 7 7 6 4 4 5 7 9 11 14 16 11 5 3 2 3 3 3 3 3 3 4 5 6 7 9 10 11
5 6 7 6 5 4 4 5 6 6 7 9 9 10 9 7 8 8 6 5 5 5 7 7 9 12 12 11 11 10 7 8 13 18 19 17 15 13 12 12 12 14 19 22 24 24 23 22 21 22 22 22 23 22 18 15 12 9 8 9 9 7 6 7 8 10 11 13 16 12 6 3 2 2 1 1 1 1 1 1 1 2 3 5 6 8
4 4 8 7 5 5 5 5 7 7 8 9 10 11 9 5 7 8 3 3 5 6 7 8 12 14 13 12 12 12 9 7 10 15 18 18 17 15 15 14 14 14 15 18 22 23 23 23 22 22 22 23 24 24 21 18 14 11 10 11 11 10 8 8 9 10 11 12 15 13 7 4 1 1 1 1 1 2 3 2 1 1 1 2 3 4
4 5 9 7 5 6 6 6 7 8 8 9 10 11 10 7 7 7 4 4 8 9 6 4 10 9 6 8 9 9 9 9 10 13 16 17 17 17 17 16 16 16 16 17 19 20 21 22 23 23 23 24 24 25 23 20 17 14 13 13 13 12 11 9 10 11 11 11 14 13 8 4 2 1 2 1 2 3 3 2 1 0 1 1 2 3
5 6 8 7 5 5 6 7 8 8 9 9 9 9 10 8 7 7 6 7 10 8 3 3 7 6 5 6 7 7 7 9 10 12 16 17 16 16 17 18 19 19 19 19 20 21 22 23 24 24 24 23 23 24 24 22 19 18 16 15 16 15 14 12 11 11 10 10 12 13 8 4 3 0 1 2 3 3 2 1 1 2 2 2 3 3
4 4 6 7 6 6 8 8 8 9 10 8 6 7 8 9 8 7 7 9 9 8 8 8 7 9 11 9 6 6 7 9 10 10 12 16 16 16 17 18 19 20 21 21 22 23 25 25 26 25 25 24 23 24 25 23 20 19 18 18 17 18 17 14 12 11 8 8 10 11 8 4 3 1 2 3 3 3 2 2 3 4 4 5 5 5
1 3 5 6 7 9 9 8 6 8 10 8 6 8 8 8 8 7 7 10 7 7 11 9 7 8 11 9 6 6 8 10 10 8 9 15 18 19 20 20 21 22 23 24 24 25 27 28 28 28 27 26 26 26 25 24 21 20 18 18 18 18 17 13 11 10 8 8 9 10 8 5 3 3 3 4 4 4 4 4 4 4 5 5 5 6
4 4 4 6 8 10 10 7 6 7 10 10 8 8 8 8 8 7 8 10 7 8 11 7 6 7 9 9 8 5 6 8 7 5 8 13 16 16 18 19 20 23 25 26 28 29 30 31 31 31 30 29 28 27 27 25 23 20 19 18 16 14 12 10 9 9 8 8 8 8 8 6 4 4 4 4 4 4 3 3 3 4 4 5 5 5
5 3 3 5 7 12 12 10 7 7 10 11 9 8 8 8 8 7 8 8 7 9 8 5 5 6 7 8 7 4 5 7 6 4 7 10 10 9 9 10 12 17 20 21 24 26 28 30 32 32 31 29 28 28 28 27 25 21 19 18 14 12 11 10 9 10 10 8 7 8 7 6 5 4 5 5 3 2 1 2 4 6 7 7 6 6
5 6 6 6 5 10 13 12 8 7 8 10 10 9 10 9 8 9 9 7 8 7 3 4 5 7 8 6 5 4 7 9 8 5 5 7 7 6 5 5 7 11 15 17 18 20 22 25 28 31 32 29 27 28 29 28 26 23 21 19 15 13 13 11 10 11 10 9 8 8 7 6 5 4 4 4 2 1 3 4 6 7 8 9 8 8
6 7 8 7 6 6 11 11 9 9 9 10 11 11 11 9 7 9 8 6 8 4 4 4 4 7 10 7 5 7 8 8 8 7 6 4 4 5 5 5 6 8 12 16 18 20 21 21 23 26 30 29 27 29 31 29 27 26 24 20 16 15 14 12 12 12 11 9 9 9 7 6 5 4 4 3 1 2 3 4 5 6 7 8 9 8
7 7 7 6 5 6 11 12 10 10 11 12 13 12 11 8 6 7 7 7 8 3 4 4 5 8 10 8 9 13 11 8 7 7 7 5 4 4 4 5 6 7 10 13 17 19 19 18 19 22 26 28 28 29 29 29 29 28 26 22 18 17 16 15 14 13 12 11 11 11 10 8 6 5 5 4 3 1 1 2 3 5 6 7 8 8
7 6 5 3 2 4 10 14 12 7 9 12 12 12 13 11 9 8 6 6 7 2 5 5 5 7 7 5 6 9 7 6 6 6 6 6 5 4 4 4 4 6 8 10 13 15 15 16 18 21 23 24 26 27 28 30 30 29 28 25 21 19 18 16 16 15 14 13 12 12 12 10 8 7 6 5 4 3 1 1 2 3 4 5 6 6
9 8 5 6 6 5 8 12 14 10 10 12 12 13 14 12 11 10 9 9 10 7 3 7 7 7 7 6 7 8 7 8 7 6 6 6 5 5 4 3 5 7 8 9 10 9 13 18 20 22 23 24 25 26 27 28 28 29 29 26 22 21 20 18 18 17 16 15 14 14 14 13 10 8 7 7 5 5 4 2 1 2 2 3 4 4
9 8 8 9 9 9 9 8 11 13 10 8 11 15 14 12 12 11 9 9 10 10 8 10 10 9 8 9 13 14 12 12 10 9 8 7 5 6 5 5 6 7 8 9 9 6 7 19 25 25 24 26 26 27 28 28 28 28 27 25 24 24 23 21 20 20 19 18 17 16 16 16 14 11 10 9 9 8 7 5 4 3 2 3 4 5
9 9 8 8 9 11 12 9 10 13 11 9 11 12 11 13 14 12 9 7 7 8 9 11 14 14 11 9 11 13 12 12 12 11 10 8 7 7 6 6 7 8 9 9 10 8 3 12 21 25 27 28 28 29 30 29 30 29 27 27 27 27 26 24 23 22 22 21 20 19 18 18 17 15 13 12 12 11 10 8 7 6 6 5 4 5
8 10 9 9 11 13 13 13 14 14 14 15 13 11 11 12 12 12 10 8 8 8 8 12 15 16 16 11 10 11 13 13 13 12 11 10 9 8 8 8 8 10 10 10 10 9 6 6 11 17 21 25 28 30 31 31 30 29 29 29 29 29 29 28 27 26 25 24 23 21 20 20 19 18 17 15 14 14 13 12 11 10 10 9 7 7
5 7 9 7 8 12 12 12 14 13 13 15 16 14 14 14 14 14 13 11 11 8 8 11 12 13 15 13 12 14 15 15 14 13 12 12 11 11 10 10 9 9 9 10 10 9 7 8 11 15 17 19 21 24 28 30 30 29 29 29 30 31 32 32 30 28 27 27 25 23 21 20 19 18 18 18 17 17 17 15 15 14 14 13 12 11
4 6 10 8 7 10 11 12 13 11 9 11 14 15 15 15 16 17 17 17 15 11 8 8 10 12 11 8 10 14 17 17 15 14 14 13 13 13 12 12 10 8 8 9 10 9 8 8 11 17 20 21 21 19 20 22 24 26 28 28 29 31 32 33 31 28 27 27 27 25 23 22 21 20 20 20 20 20 20 19 18 18 17 17 17 16
6 7 10 11 11 11 10 11 13 13 12 12 13 15 16 17 17 15 14 16 17 16 12 10 11 12 8 6 10 14 18 18 16 15 16 16 15 14 13 13 11 10 10 9 10 11 11 10 11 13 17 23 27 25 24 21 18 17 19 21 26 29 30 31 30 28 28 29 28 26 25 26 26 25 24 22 22 22 22 21 21 21 21 20 20 20
11 10 12 14 16 15 13 13 16 17 16 14 15 16 15 16 18 17 14 15 16 16 15 14 13 9 6 9 14 16 18 18 17 18 18 18 17 16 15 14 13 11 11 11 11 12 13 13 14 14 14 17 24 27 30 30 26 21 19 19 22 24 25 26 27 26 26 28 27 26 26 27 27 28 26 24 23 23 23 23 23 23 23 23 23 24
10 9 12 15 15 16 18 20 21 21 19 16 16 17 16 16 17 18 17 16 16 17 16 14 12 9 8 10 12 14 16 17 19 20 20 19 18 17 16 16 14 13 12 12 12 12 13 13 13 14 13 14 17 21 23 28 30 28 27 27 24 21 21 25 28 28 28 28 27 26 27 27 27 28 27 24 23 24 24 25 25 25 25 26 27 27
9 7 9 11 11 11 13 14 16 20 21 18 15 14 16 16 15 17 18 15 15 20 19 15 12 9 7 9 10 12 16 20 21 22 21 20 19 18 17 16 16 15 14 13 13 13 13 13 13 13 13 13 13 14 15 17 20 23 27 31 30 27 25 25 26 26 27 28 28 29 30 29 26 25 24 23 23 24 25 26 27 27 27 28 29 30
11 9 9 10 9 8 9 8 9 12 13 13 12 12 14 15 13 15 18 18 17 16 15 16 17 13 8 8 11 13 17 21 22 21 21 20 18 17 16 16 15 15 14 13 14 14 14 14 13 13 13 13 12 12 12 12 13 15 19 24 28 30 30 28 25 23 24 26 29 32 33 29 24 22 22 24 26 27 27 28 28 28 29 30 31 32
12 12 13 15 15 14 14 14 13 12 11 10 11 11 11 12 13 14 16 19 19 17 18 20 20 18 14 12 12 14 15 18 21 22 22 21 19 18 16 16 15 15 17 17 17 17 17 16 16 16 15 15 15 15 15 14 14 15 16 18 23 27 30 29 26 25 26 26 25 28 29 27 26 27 28 28 28 28 28 29 30 30 31 31 33 34
11 13 14 15 18 19 17 18 17 16 18 18 18 16 14 14 15 15 18 20 18 17 19 18 16 17 18 15 14 14 16 18 21 23 23 22 20 18 17 17 17 17 18 20 20 20 20 20 20 21 20 20 20 19 19 19 19 19 19 19 20 22 23 24 22 22 23 22 20 20 22 23 25 27 28 28 28 28 28 29 31 33 34 34 35 36
11 13 14 15 18 18 18 18 18 17 19 20 20 20 19 18 18 19 22 22 20 21 22 19 17 17 16 14 14 14 16 18 20 22 23 21 19 19 20 20 21 21 21 21 21 22 22 23 24 24 24 24 24 24 24 24 24 23 23 23 22 22 23 24 25 25 26 26 24 22 22 23 24 25 26 27 28 29 30 31 32 34 36 37 38 38
12 13 14 16 18 19 18 19 19 19 20 21 22 23 22 22 22 22 23 22 23 26 25 21 22 22 18 16 17 17 17 19 21 23 24 23 22 23 23 23 23 23 23 23 23 23 24 25 25 26 26 26 25 25 26 26 26 25 25 24 24 24 24 25 26 27 28 29 28 27 27 28 28 28 30 31 31 31 33 34 35 36 37 38 39 40
14 14 14 14 17 20 19 19 20 20 21 22 23 23 22 23 23 23 24 23 23 26 26 25 29 31 26 21 22 24 23 23 25 28 26 25 25 25 23 24 24 24 25 25 25 25 25 25 25 25 25 25 25 25 25 25 26 26 26 25 25 25 26 27 27 27 27 27 27 28 29 29 29 29 30 31 31 32 33 35 37 38 38 40 41 41
13 13 14 14 18 20 17 17 19 19 21 26 27 25 24 25 26 25 25 26 27 29 29 28 31 33 28 22 22 26 27 25 27 30 28 27 27 25 25 26 26 26 27 27 27 27 26 25 25 25 25 25 25 25 25 25 25 25 26 26 26 26 27 27 28 28 28 27 27 28 28 29 29 30 30 30 31 32 33 35 36 38 39 40 41 41
12 13 14 15 18 19 14 13 14 14 17 19 20 20 22 25 27 26 26 27 30 31 30 28 28 28 24 21 21 23 25 25 28 31 31 28 26 25 26 27 28 28 29 29 29 28 27 26 26 25 25 25 25 24 24 24 25 25 26 26 27 27 27 27 27 27 27 27 27 27 28 29 29 30 31 31 31 32 33 34 35 37 39 39 40 40
14 15 15 15 17 17 13 11 11 12 13 11 10 12 15 18 21 23 23 23 25 27 28 29 29 28 27 27 27 28 27 27 29 30 29 27 26 26 27 29 30 30 31 31 30 29 29 28 28 27 26 25 24 24 25 25 26 26 27 27 28 28 27 27 27 26 26 25 26 26 27 27 28 29 30 30 31 31 32 33 34 36 37 38 39 40
15 15 14 14 16 16 13 11 10 9 9 8 8 9 9 9 13 17 19 21 24 26 28 30 30 29 32 34 34 33 33 32 30 30 29 29 28 27 28 29 30 31 32 32 32 31 30 29 28 28 27 26 26 26 26 27 28 28 28 28 28 28 28 28 27 27 26 26 26 26 27 27 27 28 28 28 29 30 31 33 34 35 36 36 37 38
15 15 14 14 15 14 13 13 11 8 7 8 11 13 12 12 14 15 16 18 22 22 22 24 23 20 23 27 27 27 27 27 28 29 31 31 30 29 30 31 32 34 35 34 33 32 31 30 30 29 28 28 28 28 29 29 29 29 29 28 27 27 27 27 27 27 27 28 28 28 29 30 30 30 30 30 30 29 30 31 32 34 35 36 36 37
16 14 14 15 15 14 16 17 16 15 15 14 15 17 16 14 13 14 14 15 19 20 21 20 16 11 12 15 18 20 19 18 19 21 25 28 29 29 31 32 34 35 34 34 33 32 31 31 31 30 29 30 31 31 30 30 30 30 29 28 27 27 27 27 27 27 27 28 29 30 30 31 32 33 33 32 32 32 32 32 32 33 34 36 37 37
14 13 12 13 14 13 15 16 15 14 13 9 9 10 9 8 9 12 14 15 16 19 20 18 13 9 8 9 13 16 16 16 15 14 19 27 29 30 32 32 33 34 34 34 33 32 32 32 31 32 32 33 33 32 31 31 31 31 31 29 28 27 27 27 26 26 27 27 29 30 31 32 33 34 34 34 34 34 34 34 34 34 35 36 37 38
12 13 12 13 15 15 14 14 13 12 11 8 7 8 8 8 9 11 12 14 15 16 16 14 11 8 8 11 14 14 14 17 15 13 18 26 28 29 31 32 33 34 34 34 34 34 34 34 34 35 36 36 36 34 33 33 33 33 33 32 31 30 29 29 28 28 29 29 29 30 31 32 33 34 35 35 35 36 36 36 36 36 36 36 37 37
11 11 12 14 16 16 16 16 16 15 13 12 12 12 11 11 10 10 9 10 15 16 13 11 10 9 10 13 16 15 15 17 16 16 22 26 25 27 31 32 34 35 34 34 36 37 37 37 38 39 39 38 37 36 35 35 36 36 36 35 34 34 33 32 32 32 33 33 33 33 33 34 34 35 36 36 35 35 36 36 37 37 37 37 37 36
10 10 11 14 16 17 17 18 18 15 14 15 16 15 13 12 11 12 10 10 13 15 13 13 14 12 11 12 13 14 14 15 17 21 25 26 25 28 31 33 35 35 35 36 37 38 39 40 41 41 40 39 38 37 37 37 37 38 38 38 38 37 36 35 36 37 38 38 37 36 36 36 36 36 36 35 34 34 35 35 36 37 37 37 37 35
9 9 11 14 15 16 16 17 17 14 12 14 15 12 10 10 10 11 12 12 13 14 15 17 17 16 15 14 15 17 16 18 23 27 28 29 29 30 31 34 35 36 37 38 39 40 41 41 41 41 40 39 39 39 38 38 38 39 39 39 40 39 39 39 40 41 42 42 41 40 38 37 37 37 35 33 32 32 33 34 34 35 35 34 34 33
8 8 11 13 13 14 15 15 14 11 9 11 12 8 6 8 10 12 14 14 15 17 20 21 22 22 22 22 23 24 24 25 28 30 29 30 31 31 31 33 34 36 37 38 38 39 39 40 40 40 39 39 39 39 39 39 40 41 41 42 43 42 43 43 44 44 44 44 43 41 39 38 37 36 34 32 31 32 33 33 33 33 32 31 31 31
9 11 12 12 10 10 13 13 10 7 7 9 10 9 9 10 12 14 17 18 20 21 21 21 22 22 23 25 26 27 27 28 29 31 32 32 32 32 33 33 33 35 36 36 37 37 38 39 40 40 40 40 40 40 40 40 42 43 44 45 45 45 45 46 46 46 45 45 44 42 39 38 36 34 33 33 33 33 33 32 31 30 30 30 30 31
9 10 11 11 9 9 12 15 14 13 11 12 14 14 15 17 19 23 24 23 23 23 22 23 25 25 26 29 30 30 30 30 30 31 32 33 34 35 36 37 37 37 38 37 37 37 38 39 40 41 41 41 41 41 41 42 44 46 47 47 47 47 46 46 46 46 45 44 43 41 38 37 35 34 33 34 34 33 31 31 30 29 29 29 30 31
10 9 10 11 12 13 15 16 16 15 14 15 16 16 17 21 25 29 29 26 25 26 27 28 30 30 31 34 36 36 36 35 33 33 32 33 34 34 35 36 37 38 38 38 37 37 37 38 39 41 41 41 41 41 42 43 44 46 47 47 47 46 45 45 45 44 43 42 40 39 38 36 34 32 33 34 33 31 29 29 29 28 29 30 30 30
10 11 11 11 12 15 15 12 12 14 15 17 18 18 20 23 23 22 23 23 23 25 27 30 33 34 35 37 37 37 37 36 36 36 35 34 35 34 33 34 34 34 35 36 37 37 37 38 40 41 42 42 41 41 41 41 42 43 43 43 44 43 42 41 41 40 39 38 37 37 37 35 32 31 32 31 29 27 27 28 27 28 29 31 31 30
9 12 13 11 12 15 16 15 16 18 18 18 18 18 20 21 21 21 23 26 27 29 31 33 34 35 36 36 36 36 36 35 34 35 35 35 36 35 34 34 34 35 35 35 36 37 37 39 40 41 42 42 41 41 40 40 40 40 39 40 41 40 38 37 37 37 36 35 34 33 34 33 30 29 28 27 25 25 25 26 26 28 29 30 30 31
10 12 11 11 13 15 16 15 16 18 17 17 17 17 18 20 23 27 29 30 31 33 34 34 35 35 35 35 34 34 35 35 34 35 36 36 36 36 35 35 36 37 37 36 37 37 38 39 40 41 41 41 41 40 40 39 39 38 38 39 39 38 37 37 37 35 34 32 31 32 33 31 27 24 24 25 24 24 24 24 25 27 29 31 33 34
10 11 11 11 14 16 15 14 16 18 21 21 20 20 22 23 26 28 29 29 30 31 32 33 34 35 35 34 33 33 35 35 35 36 37 37 37 37 37 37 37 38 37 36 37 38 39 39 40 40 40 40 39 39 38 38 38 37 37 37 37 36 36 36 35 33 32 30 30 32 32 28 24 22 23 24 24 24 24 24 25 26 28 30 32 33
10 12 12 13 15 17 18 18 19 22 25 25 24 24 26 27 28 28 27 27 28 29 30 31 33 34 33 32 32 33 34 34 34 35 37 37 37 37 37 37 37 37 36 36 37 38 38 38 38 38 39 37 36 37 37 37 37 37 36 37 36 35 35 36 36 35 33 31 30 28 27 24 23 23 24 25 24 24 25 26 26 29 30 30 30 28
Wind_Direction
229 226 222 221 221 221 235 246 252 246 235 228 226 229 223 223 218 192 199 230 229 236 231 232 251 257 263 263 256 254 243 226 212 202 200 196 195 196 197 205 209 208 206 203 203 204 210 217 221 226 231 233 235 234 228 218 203 180 160 171 172 0 356 359 1 3 2 2 2 358 352 325 278 248 240 237 240 245 250 249 249 250 251 252 251 251
239 225 224 226 237 242 247 250 248 237 224 217 225 231 225 228 223 185 206 246 240 243 242 247 261 255 253 257 254 252 241 228 216 203 202 201 202 202 194 199 205 207 210 209 206 207 212 219 222 225 230 235 237 236 232 223 212 198 189 202 214 248 319 335 345 355 356 357 357 355 353 331 273 239 236 234 240 245 248 250 247 248 250 251 253 253
236 224 224 228 235 242 240 225 220 215 207 211 219 227 229 223 214 206 230 251 248 243 252 269 268 259 254 250 252 255 238 221 212 203 202 204 206 209 204 201 202 205 210 212 211 212 214 220 224 226 230 233 236 236 232 222 217 210 204 215 225 243 284 309 326 341 348 352 354 353 355 334 266 231 226 226 244 253 257 259 252 251 252 252 253 253
232 207 206 211 210 218 225 206 199 201 204 211 216 222 226 214 219 224 209 221 246 253 265 281 276 265 255 245 246 252 248 224 211 205 205 207 209 217 216 206 202 203 207 209 213 215 217 221 225 227 230 233 235 237 234 227 225 217 209 221 231 244 269 293 309 325 339 346 349 351 357 340 269 212 207 238 292 257 233 248 258 271 271 267 263 260
243 196 190 186 173 181 198 201 200 214 216 211 215 225 230 216 230 242 205 206 260 268 269 282 278 264 248 238 238 242 243 229 212 211 215 219 222 229 228 216 209 208 208 210 214 217 217 220 223 226 231 233 235 238 236 233 231 222 214 223 234 243 258 281 295 311 331 341 344 348 353 341 307 154 96 38 97 154 151 136 109 58 0 323 297 277
231 204 188 176 171 179 195 212 210 223 229 220 218 223 232 230 229 242 248 252 257 247 229 268 279 259 222 222 224 222 225 219 212 214 221 226 229 232 232 226 220 215 213 212 215 219 219 218 220 225 230 233 236 238 237 235 232 225 221 227 236 244 254 269 283 300 324 333 338 347 349 339 337 91 99 116 155 164 156 144 129 92 356 345 332 317
223 209 198 197 198 186 208 222 217 226 236 232 222 217 221 225 224 228 233 245 254 253 245 282 280 263 226 218 205 194 205 210 213 218 222 225 228 231 233 233 231 227 223 219 218 220 222 221 221 223 226 229 235 239 237 235 232 227 226 231 239 246 249 256 269 290 316 324 331 344 348 343 345 346 173 180 184 185 182 194 269 289 298 300 305 312
188 204 205 209 213 216 226 231 226 227 235 237 216 205 211 213 218 222 227 246 259 277 284 268 259 268 260 240 201 194 211 214 211 216 227 230 229 232 233 235 237 238 237 235 230 227 227 227 226 228 227 226 230 238 239 235 231 228 229 234 240 247 250 255 266 280 301 310 320 338 344 341 338 298 253 238 229 239 254 282 303 308 306 300 293 291
200 238 228 223 223 230 233 235 231 216 227 242 217 205 209 205 215 222 236 254 259 275 272 244 219 258 261 239 212 211 223 218 207 209 232 238 239 239 239 239 241 243 244 244 242 238 235 233 232 232 231 227 227 233 237 236 230 225 227 232 239 248 254 261 266 268 282 294 307 329 340 332 321 311 292 268 251 259 276 295 315 324 324 317 304 293
282 253 244 238 229 236 234 224 219 208 222 235 218 204 204 202 214 223 246 260 254 263 267 236 206 261 266 238 217 206 208 203 198 210 225 231 237 240 243 244 246 248 248 248 247 245 242 239 236 234 233 231 227 227 232 233 227 220 221 225 233 244 251 254 253 253 264 280 294 318 334 333 315 312 317 298 268 264 281 314 347 2 4 358 342 320
269 251 294 280 239 235 229 215 207 206 213 212 200 199 206 209 219 228 245 258 257 258 252 212 208 258 269 241 218 215 218 200 193 203 201 203 211 223 236 243 250 255 257 256 253 250 247 244 239 235 234 234 228 224 226 227 221 214 212 214 219 228 232 233 236 241 252 266 282 302 324 333 318 310 321 318 293 274 326 27 28 30 30 24 15 2
255 253 285 302 265 232 222 221 221 216 208 199 200 214 222 220 226 234 231 230 250 254 193 165 210 237 251 240 202 216 229 214 208 215 204 191 200 224 237 239 254 262 264 264 260 254 250 246 242 237 233 234 231 223 220 219 212 205 206 208 208 214 220 221 223 232 243 253 266 285 308 326 320 308 315 326 345 67 57 45 39 36 34 29 24 20
253 245 263 286 289 238 213 215 221 222 218 212 216 228 235 233 230 241 236 226 250 246 136 150 206 229 246 245 224 240 246 238 231 231 233 214 211 237 240 242 259 263 260 259 260 259 252 244 242 237 230 231 231 221 216 211 203 201 205 204 198 206 216 214 211 220 231 242 256 269 286 307 314 305 299 308 339 86 69 49 42 38 33 29 26 25
251 225 236 268 286 238 211 211 218 223 220 219 225 230 239 247 240 242 249 249 254 232 147 195 233 242 246 235 240 255 257 249 231 220 229 232 231 242 242 251 265 273 268 261 263 260 247 235 232 228 225 227 225 217 211 204 198 200 204 202 201 207 210 206 208 216 225 234 247 256 266 285 300 296 287 277 270 268 64 52 42 36 31 27 26 30
264 231 187 180 246 241 221 220 226 234 226 224 231 239 246 254 255 256 264 266 266 244 145 179 222 247 246 215 232 250 245 233 221 213 222 228 241 256 255 267 290 295 287 280 275 256 226 214 213 212 214 215 211 206 201 198 197 199 201 205 210 207 200 202 208 214 219 225 236 245 253 266 279 284 281 277 271 265 272 18 34 32 27 21 20 29
261 261 223 221 245 253 240 230 229 240 244 231 230 242 248 250 251 261 280 284 288 294 214 206 229 246 249 242 244 246 245 248 245 238 235 230 251 276 274 284 315 315 303 300 298 267 213 200 196 197 201 198 194 193 193 194 197 200 204 208 209 203 201 207 210 211 215 221 230 239 245 253 262 272 276 274 264 253 250 261 319 0 8 1 358 8
247 253 246 248 254 249 245 239 227 233 246 239 237 242 244 250 251 257 269 264 268 279 259 241 243 241 239 243 249 254 255 256 256 253 246 237 256 286 287 284 307 321 320 316 319 314 218 196 190 188 191 190 188 190 192 195 197 201 206 206 203 203 207 211 210 209 215 223 228 233 240 247 253 260 268 268 263 258 254 249 255 275 298 310 321 332
251 260 254 244 253 250 243 248 244 240 244 242 248 249 241 245 246 245 256 247 240 261 257 243 242 243 245 231 229 242 243 241 245 247 250 251 260 281 281 277 302 324 329 324 319 321 278 205 198 194 192 191 191 193 194 195 196 199 202 201 203 207 210 215 218 217 220 229 235 234 236 242 247 252 260 263 263 263 262 256 253 256 265 276 290 302
247 260 258 237 245 254 250 256 257 255 254 249 253 256 248 251 246 235 245 254 251 258 256 247 241 245 253 233 202 222 231 230 234 235 245 253 256 270 267 258 292 320 327 328 322 313 301 263 232 217 208 201 196 196 196 195 195 197 200 202 205 209 213 220 226 224 222 231 241 240 236 240 245 247 251 254 257 260 263 263 260 258 261 266 270 276
231 252 260 238 238 253 253 250 249 251 255 253 253 251 248 256 257 248 249 255 259 262 263 261 252 249 256 240 215 221 224 224 228 230 241 248 250 261 261 250 267 301 312 318 320 311 302 287 263 251 239 220 208 204 203 203 204 205 206 207 208 209 213 220 225 224 221 226 236 238 233 236 240 241 243 248 252 255 259 262 264 263 264 266 268 269
235 245 256 250 244 252 248 238 241 248 249 247 248 244 241 246 251 256 257 253 256 262 265 266 262 262 264 241 219 214 212 220 230 233 237 240 243 252 254 249 250 260 277 294 300 296 295 284 257 248 241 231 226 226 221 215 211 212 215 214 212 210 211 216 220 221 221 224 230 232 227 227 232 234 237 242 249 252 253 257 261 264 266 268 270 271
248 245 253 258 255 254 250 233 235 247 251 253 254 250 249 249 249 256 256 247 249 258 264 267 270 275 273 221 207 208 214 226 232 232 231 231 234 240 242 241 241 240 245 260 273 274 274 274 266 254 241 228 228 234 237 233 226 226 227 221 217 215 215 219 222 221 222 224 229 229 224 222 225 229 234 237 242 248 250 254 257 260 263 266 268 271
264 259 255 259 256 256 262 253 244 249 254 257 258 256 256 256 252 253 260 259 256 258 265 268 268 276 264 215 207 211 222 230 228 225 224 223 225 228 229 231 231 232 232 235 247 255 257 261 262 261 253 235 229 233 237 238 240 247 246 233 223 220 221 224 226 226 226 226 229 232 228 225 224 225 230 233 237 242 246 251 255 257 260 263 266 267
268 262 256 259 258 256 260 259 256 257 258 257 257 254 252 254 254 255 265 275 267 259 262 264 259 258 247 227 219 220 224 226 225 222 218 218 221 221 221 224 225 226 228 228 232 237 240 243 244 246 248 245 241 239 238 236 236 238 237 234 232 230 229 228 229 233 233 230 232 235 234 233 229 225 227 232 237 241 243 245 249 253 256 260 263 265
264 260 257 262 264 254 250 252 251 250 250 249 250 248 244 249 256 257 261 267 263 259 260 259 259 259 242 231 238 237 227 222 220 219 218 218 218 218 219 221 223 225 228 230 231 231 231 230 228 229 231 233 236 236 235 235 235 233 231 231 233 235 236 231 227 229 232 233 235 236 237 239 235 230 233 239 244 249 249 246 244 246 249 253 258 261
263 259 255 257 261 256 250 253 258 257 249 241 244 250 249 251 254 257 260 256 254 258 255 251 258 262 243 228 240 243 234 228 225 223 224 223 222 223 226 227 231 235 238 244 245 241 239 237 236 235 234 234 233 232 231 230 231 231 229 227 228 232 234 233 229 229 231 235 238 238 239 239 236 239 248 252 251 253 255 253 249 247 247 248 251 255
261 256 253 253 256 261 265 269 277 283 274 258 258 261 256 255 256 258 258 254 255 259 253 251 257 257 246 238 241 246 245 242 240 236 234 232 231 231 234 239 246 249 251 256 260 258 255 254 255 255 253 252 250 248 246 244 243 241 237 233 233 236 239 239 240 239 236 237 241 242 243 243 243 247 253 255 253 253 254 256 255 253 252 251 250 253
259 256 254 253 254 259 267 271 273 274 270 267 269 266 260 260 258 254 252 254 262 266 259 260 262 253 247 243 240 245 251 252 253 248 240 235 236 240 246 255 262 263 261 262 265 267 266 265 267 268 267 266 264 262 260 259 259 258 256 254 249 248 248 247 248 248 244 246 251 252 253 253 251 251 252 253 255 256 255 256 255 255 256 256 255 257
250 259 260 257 260 263 265 267 267 267 265 265 265 264 262 260 256 253 253 255 259 260 261 270 270 254 247 249 248 249 252 256 261 257 246 242 248 258 265 268 269 269 269 267 266 267 267 267 268 269 271 271 269 269 268 267 267 267 267 267 264 260 258 257 258 260 260 262 263 261 260 259 255 254 257 260 262 262 259 258 256 255 256 257 257 258
249 264 263 260 267 270 267 266 266 263 263 262 261 261 260 259 256 255 256 256 256 257 259 266 264 253 247 254 261 258 252 252 255 255 254 257 265 270 271 270 269 267 266 264 262 261 261 262 263 265 267 269 269 270 271 270 270 271 271 271 271 269 267 266 265 265 264 264 262 259 260 259 257 257 260 263 264 263 261 259 258 256 256 256 256 256
262 268 268 269 274 273 271 268 264 262 263 263 260 258 257 257 255 254 255 255 255 256 258 259 261 261 261 263 261 259 258 258 257 256 257 262 268 272 271 266 264 262 260 258 256 255 254 253 255 257 260 262 263 265 267 268 268 270 271 271 273 274 273 273 272 272 270 269 266 264 265 265 263 261 261 262 263 261 258 258 258 258 258 257 257 256
270 271 274 277 274 274 274 269 265 267 269 267 263 258 253 251 252 252 254 254 254 257 260 262 264 268 270 262 256 260 265 265 261 259 259 260 265 270 269 264 261 257 254 253 251 249 248 247 248 251 253 255 257 259 261 263 264 266 268 270 272 274 274 275 274 274 273 271 269 268 267 267 267 266 265 264 263 261 258 257 257 258 259 259 259 258
269 267 271 274 272 273 276 272 271 275 274 270 261 250 246 249 253 256 258 258 259 260 260 260 263 267 267 258 255 264 268 263 258 256 256 259 264 266 263 258 255 254 251 249 247 245 245 246 247 249 250 252 255 257 260 262 264 266 268 270 271 272 273 273 272 271 269 268 268 267 266 267 267 266 266 265 264 263 261 259 258 258 259 259 260 260
268 265 266 267 267 271 275 274 274 273 269 264 251 241 246 252 253 254 256 256 256 255 255 256 260 262 261 258 260 265 265 261 257 253 254 260 264 263 257 252 251 250 247 244 242 242 243 246 248 250 253 255 257 260 263 265 266 267 268 269 270 271 271 270 268 267 265 264 265 266 266 266 266 266 265 265 264 263 262 261 260 259 260 260 260 261
260 261 261 257 259 266 270 266 264 264 254 248 251 254 257 258 256 257 258 255 252 254 259 262 262 263 262 262 264 264 262 260 258 255 257 261 262 257 251 246 244 242 241 239 240 241 244 247 250 253 256 260 263 265 266 266 267 267 267 268 268 268 268 268 267 267 266 266 266 266 266 266 266 266 266 266 265 264 262 261 260 260 260 260 260 261
248 252 257 253 252 257 257 248 247 259 264 260 267 272 272 273 273 270 268 266 261 260 263 266 265 266 267 266 266 265 262 260 258 257 258 258 256 252 246 241 238 238 239 240 241 243 246 250 253 256 259 263 267 269 268 268 267 266 265 265 265 265 265 266 267 268 270 270 270 270 270 270 270 269 269 269 269 267 265 264 262 261 260 259 259 260
243 244 249 250 248 249 254 256 257 267 277 274 266 267 270 270 268 263 261 266 267 264 266 270 272 273 272 272 271 269 268 261 253 251 252 250 247 245 242 240 239 240 241 241 242 244 248 250 253 257 262 266 268 269 268 267 266 265 263 262 262 264 265 267 268 270 272 273 273 272 272 272 272 272 272 271 271 270 268 267 265 263 261 260 260 260
232 229 235 245 247 246 256 266 266 266 276 271 246 247 258 259 260 263 261 261 265 266 264 264 268 273 274 272 271 271 269 254 234 227 240 243 239 237 238 238 239 240 241 243 245 247 250 252 256 260 264 267 268 267 267 266 265 264 263 263 264 266 267 270 273 275 277 276 276 276 275 274 273 273 272 272 271 270 269 267 265 263 262 261 261 261
225 225 231 242 250 250 253 262 263 263 272 271 250 251 259 255 256 264 262 253 249 253 258 259 261 272 272 265 264 265 258 246 230 219 236 241 236 233 236 236 237 240 243 246 250 252 253 256 259 262 265 267 267 266 266 266 267 266 266 266 268 270 272 275 279 282 283 282 282 280 279 277 275 274 273 271 270 269 267 266 264 263 262 261 262 262
227 229 232 241 249 251 252 257 263 267 270 268 261 263 266 260 253 256 263 252 238 237 245 252 255 267 273 266 261 257 249 247 241 230 236 242 242 238 238 238 240 242 245 249 252 254 255 257 259 261 262 263 263 263 264 266 267 267 267 269 272 274 276 280 284 285 285 286 286 284 282 280 277 275 273 272 270 269 267 265 263 261 261 260 261 262
235 231 236 245 251 252 254 258 263 266 268 268 266 268 270 265 254 252 258 255 241 235 236 239 244 256 271 271 264 259 255 255 254 246 243 247 250 246 243 244 247 248 249 251 253 255 257 258 259 260 260 260 260 261 263 265 266 266 267 269 271 274 277 281 284 285 286 287 287 285 282 280 277 275 274 272 272 270 268 266 262 260 259 259 260 261
250 248 249 250 253 256 256 258 263 265 263 264 266 268 269 264 256 256 258 254 251 249 246 246 246 252 263 268 264 262 262 261 263 261 257 256 257 254 250 249 250 252 252 254 255 257 258 259 260 261 261 260 260 261 262 264 265 267 269 270 272 275 278 280 282 283 284 285 284 282 280 278 276 274 272 271 271 270 268 265 262 259 258 257 257 258
258 262 262 256 255 258 254 254 262 266 260 264 270 270 265 259 258 261 258 252 255 260 259 259 258 258 262 265 263 262 264 263 263 264 264 263 263 262 258 255 254 255 256 257 259 260 261 262 263 263 264 263 263 263 263 265 267 270 272 273 275 277 279 280 280 281 281 280 279 278 277 276 274 270 267 267 268 266 265 263 259 258 256 254 252 253
257 257 263 266 261 255 252 251 252 248 252 269 276 271 269 267 267 272 272 266 263 265 268 270 270 269 270 272 271 270 271 270 268 268 269 270 269 268 267 265 263 263 264 265 265 266 266 267 268 269 269 269 268 268 268 269 271 272 273 274 275 276 276 277 277 277 276 275 275 275 275 274 271 265 261 264 265 263 261 258 255 254 253 249 247 248
262 260 262 264 260 257 263 263 257 252 264 281 284 278 274 272 271 276 281 280 275 272 275 277 277 278 279 279 278 277 276 277 278 277 276 276 276 274 274 273 272 272 273 273 273 272 272 272 272 272 271 271 271 271 270 270 271 271 272 273 273 274 274 275 275 274 274 274 275 275 274 272 267 260 259 262 263 262 259 254 251 251 250 246 243 242
272 273 266 266 270 274 275 273 265 263 272 282 285 282 279 276 275 276 278 279 277 275 275 276 276 277 278 278 278 278 277 278 280 281 281 281 280 277 276 275 275 275 276 276 275 274 273 273 272 271 271 270 270 269 268 268 269 271 273 274 275 275 276 276 276 276 276 276 275 274 272 270 265 259 259 260 259 258 254 250 247 247 245 242 240 240
276 272 269 274 278 277 275 275 276 280 284 287 288 286 282 279 280 279 277 278 277 276 275 274 274 275 275 275 276 277 276 276 278 278 279 280 280 279 277 276 276 275 274 273 273 272 272 272 272 272 272 272 272 272 272 271 271 273 275 278 279 280 279 278 276 276 275 274 272 272 272 270 264 259 257 255 252 250 248 246 245 244 242 240 238 236
283 278 281 283 279 274 274 279 284 287 287 288 289 288 285 282 281 280 278 279 280 280 279 277 276 276 276 275 276 276 276 276 276 276 277 278 278 277 276 276 275 274 273 272 272 272 272 272 272 272 273 274 274 274 274 273 273 275 277 278 279 279 278 276 274 273 272 271 272 273 273 270 264 257 251 245 241 242 243 243 241 238 237 237 235 232
286 286 288 287 282 280 281 287 291 292 290 288 286 285 285 285 284 282 281 281 281 281 281 280 279 277 276 276 277 278 278 278 277 278 278 278 277 277 276 276 275 276 276 275 275 275 274 273 273 274 274 274 273 272 272 272 272 273 275 275 275 275 274 274 274 273 272 270 269 268 267 264 257 247 238 234 234 234 234 235 236 237 235 232 229 223
288 286 287 288 286 284 284 288 293 293 291 291 290 289 288 288 288 288 287 285 283 281 280 278 275 273 272 274 275 276 277 278 278 277 277 277 277 278 278 278 278 278 278 277 276 275 274 274 275 275 274 273 272 271 270 269 270 271 272 272 271 271 272 274 274 273 270 267 263 262 261 256 245 234 229 228 229 228 226 224 225 228 227 223 218 212
290 286 287 286 282 282 286 289 291 290 290 291 292 292 292 294 294 292 290 288 286 285 283 279 275 271 269 269 270 272 274 275 275 274 274 275 277 278 278 278 278 277 277 276 275 274 274 274 274 274 274 273 271 269 268 268 269 270 269 269 269 269 271 272 272 270 267 263 259 259 257 247 232 224 222 222 224 225 225 223 221 218 214 210 206 204
Height
3106 3107 3107 3107 3107 3106 3106 3106 3106 3107 3107 3108 3109 3109 3109 3109 3109 3110 3110 3110 3111 3112 3113 3113 3113 3114 3114 3113 3113 3113 3114 3115 3115 3116 3117 3118 3119 3120 3121 3121 3123 3124 3125 3125 3127 3128 3129 3130 3130 3130 3131 3131 3131 3132 3133 3134 3134 3134 3134 3134 3134 3134 3134 3134 3134 3133 3133 3132 3131 3130 3129 3129 3129 3128 3128 3128 3128 3128 3129 3129 3129 3130 3130 3130 3131 3132
3105 3106 3106 3106 3105 3105 3105 3106 3106 3106 3106 3108 3109 3109 3109 3109 3108 3109 3110 3110 3110 3112 3112 3112 3112 3112 3112 3112 3112 3111 3112 3113 3114 3115 3116 3117 3117 3118 3119 3120 3121 3122 3123 3124 3125 3126 3127 3128 3129 3129 3129 3130 3130 3131 3132 3133 3133 3133 3133 3133 3133 3133 3133 3133 3133 3133 3132 3131 3130 3130 3129 3128 3128 3127 3127 3127 3127 3127 3127 3128 3128 3128 3128 3129 3129 3130
3105 3105 3105 3104 3104 3104 3105 3105 3105 3106 3106 3107 3108 3108 3108 3107 3108 3108 3109 3109 3110 3111 3111 3110 3111 3111 3111 3111 3110 3110 3110 3111 3112 3113 3114 3115 3115 3116 3117 3118 3119 3120 3120 3122 3123 3124 3125 3126 3127 3128 3128 3128 3129 3129 3130 3131 3132 3132 3132 3132 3132 3132 3133 3133 3132 3132 3132 3131 3130 3129 3128 3128 3127 3127 3126 3126 3126 3126 3126 3126 3127 3127 3127 3128 3128 3128
3104 3103 3103 3103 3104 3104 3104 3105 3105 3105 3106 3107 3107 3107 3106 3106 3107 3107 3107 3108 3109 3109 3110 3109 3109 3109 3108 3109 3108 3109 3109 3109 3110 3111 3112 3113 3114 3114 3115 3116 3117 3118 3119 3120 3121 3122 3123 3124 3125 3126 3126 3127 3127 3128 3129 3130 3130 3131 3131 3132 3132 3131 3132 3132 3132 3131 3131 3130 3130 3129 3128 3127 3127 3126 3126 3126 3126 3126 3126 3126 3126 3126 3126 3127 3127 3127
3103 3102 3102 3103 3103 3104 3104 3104 3105 3105 3105 3105 3106 3106 3105 3106 3107 3106 3106 3107 3108 3108 3108 3108 3107 3105 3105 3106 3106 3107 3107 3108 3108 3109 3110 3111 3112 3112 3113 3114 3115 3116 3117 3118 3119 3120 3121 3122 3122 3123 3124 3125 3125 3126 3127 3128 3129 3130 3130 3131 3131 3130 3131 3131 3131 3131 3130 3130 3129 3128 3127 3127 3127 3126 3126 3125 3125 3126 3126 3126 3126 3126 3126 3126 3126 3126
3102 3102 3102 3103 3103 3103 3104 3104 3104 3105 3104 3104 3104 3104 3105 3106 3106 3106 3107 3107 3107 3106 3106 3107 3105 3101 3102 3104 3104 3105 3106 3106 3107 3107 3108 3109 3110 3111 3111 3112 3113 3114 3115 3116 3117 3117 3118 3119 3120 3121 3122 3122 3124 3125 3126 3127 3128 3129 3129 3129 3129 3129 3130 3130 3130 3130 3130 3129 3129 3128 3127 3127 3126 3126 3125 3125 3125 3126 3125 3125 3126 3126 3126 3126 3126 3125
3101 3101 3102 3102 3102 3103 3104 3104 3103 3103 3103 3102 3102 3103 3104 3105 3106 3106 3106 3106 3105 3103 3104 3106 3104 3100 3100 3102 3103 3104 3105 3105 3106 3106 3106 3107 3108 3109 3109 3110 3111 3112 3113 3114 3114 3115 3116 3116 3117 3118 3119 3120 3122 3123 3124 3125 3126 3127 3128 3128 3128 3128 3128 3129 3129 3129 3129 3129 3129 3128 3127 3127 3126 3126 3125 3125 3125 3125 3125 3125 3125 3125 3125 3125 3125 3125
3100 3101 3101 3101 3102 3103 3103 3102 3102 3102 3102 3101 3100 3103 3104 3104 3105 3105 3105 3105 3103 3103 3103 3104 3105 3102 3099 3100 3101 3102 3103 3104 3105 3105 3104 3105 3106 3107 3107 3108 3109 3109 3110 3111 3112 3113 3113 3114 3114 3115 3116 3117 3119 3120 3122 3123 3125 3126 3126 3127 3127 3127 3127 3128 3128 3128 3129 3129 3128 3128 3127 3127 3126 3126 3126 3125 3125 3125 3125 3125 3124 3124 3124 3124 3124 3124
3099 3100 3100 3100 3101 3102 3101 3100 3100 3101 3101 3100 3100 3102 3103 3103 3104 3104 3104 3103 3103 3104 3101 3100 3103 3101 3097 3098 3100 3100 3101 3102 3103 3104 3103 3103 3104 3104 3105 3105 3106 3107 3107 3108 3109 3110 3110 3111 3111 3112 3113 3114 3116 3117 3119 3121 3123 3124 3125 3125 3126 3126 3126 3127 3127 3128 3128 3128 3128 3128 3127 3127 3126 3126 3126 3125 3125 3124 3124 3124 3124 3124 3123 3123 3123 3123
3098 3098 3099 3099 3100 3100 3099 3099 3099 3100 3100 3100 3100 3101 3101 3102 3102 3102 3102 3101 3102 3102 3099 3098 3101 3099 3095 3096 3098 3098 3099 3100 3101 3102 3102 3101 3102 3102 3102 3103 3103 3104 3104 3104 3105 3106 3107 3107 3108 3109 3110 3111 3112 3113 3115 3118 3120 3122 3123 3124 3124 3125 3125 3126 3127 3127 3127 3128 3128 3127 3127 3126 3126 3126 3125 3125 3124 3124 3124 3123 3123 3123 3123 3122 3122 3122
3097 3097 3097 3097 3098 3098 3098 3098 3098 3099 3099 3099 3100 3100 3100 3101 3101 3101 3100 3101 3100 3098 3095 3096 3100 3100 3095 3093 3096 3097 3097 3099 3100 3100 3100 3100 3100 3101 3101 3101 3101 3101 3101 3101 3101 3101 3102 3103 3104 3105 3106 3108 3109 3110 3112 3114 3117 3119 3121 3122 3122 3123 3124 3125 3125 3126 3126 3127 3127 3127 3126 3126 3126 3126 3125 3125 3124 3124 3123 3123 3123 3122 3122 3122 3122 3122
3096 3096 3096 3096 3096 3095 3096 3097 3097 3097 3098 3098 3099 3099 3099 3099 3099 3099 3098 3100 3098 3093 3093 3095 3098 3100 3096 3092 3094 3096 3096 3098 3098 3099 3099 3099 3099 3099 3099 3099 3099 3099 3098 3098 3098 3098 3098 3098 3099 3101 3103 3105 3106 3107 3108 3111 3114 3116 3118 3119 3120 3121 3122 3123 3124 3124 3125 3125 3126 3126 3126 3125 3125 3125 3125 3125 3124 3124 3123 3123 3122 3122 3122 3122 3122 3122
3095 3095 3095 3094 3094 3094 3095 3096 3097 3097 3097 3097 3098 3098 3097 3096 3097 3096 3093 3093 3092 3090 3092 3095 3097 3097 3094 3092 3093 3094 3095 3096 3097 3097 3098 3098 3098 3098 3098 3097 3097 3097 3096 3095 3095 3094 3094 3095 3096 3097 3100 3101 3103 3104 3105 3108 3110 3113 3115 3117 3118 3120 3121 3122 3122 3123 3124 3124 3125 3125 3125 3125 3124 3124 3124 3124 3124 3123 3122 3122 3122 3121 3121 3121 3121 3121
3093 3092 3093 3093 3093 3093 3094 3095 3095 3095 3095 3096 3096 3097 3095 3093 3094 3093 3089 3087 3087 3088 3091 3094 3096 3094 3091 3091 3092 3093 3094 3095 3095 3096 3096 3096 3096 3096 3096 3096 3095 3095 3094 3093 3092 3091 3091 3092 3093 3094 3096 3098 3099 3101 3103 3105 3108 3110 3113 3115 3117 3118 3119 3120 3121 3122 3122 3123 3123 3124 3124 3124 3124 3123 3123 3123 3123 3123 3122 3122 3121 3121 3120 3120 3120 3121
3091 3089 3091 3092 3092 3092 3092 3093 3093 3093 3094 3094 3094 3095 3094 3092 3092 3091 3088 3086 3086 3087 3091 3093 3094 3091 3088 3089 3091 3091 3092 3093 3094 3095 3095 3095 3095 3095 3094 3094 3094 3093 3093 3092 3090 3089 3089 3090 3091 3092 3094 3095 3096 3098 3101 3103 3106 3108 3110 3113 3115 3116 3117 3118 3119 3120 3121 3121 3122 3122 3122 3123 3123 3123 3123 3123 3123 3123 3122 3122 3121 3120 3120 3120 3120 3120
3092 3089 3089 3091 3091 3091 3092 3091 3092 3093 3093 3092 3093 3093 3092 3091 3092 3090 3089 3088 3088 3088 3089 3091 3090 3089 3088 3088 3089 3090 3091 3092 3092 3093 3093 3094 3093 3093 3093 3093 3093 3092 3092 3091 3089 3088 3087 3089 3090 3091 3092 3093 3095 3097 3099 3102 3104 3106 3108 3110 3112 3114 3115 3116 3117 3118 3119 3120 3120 3121 3121 3122 3122 3122 3122 3122 3122 3122 3122 3121 3121 3120 3120 3120 3119 3120
3091 3089 3088 3089 3090 3090 3090 3090 3091 3092 3091 3091 3091 3091 3090 3090 3091 3090 3089 3090 3091 3089 3086 3086 3087 3087 3087 3087 3087 3089 3089 3090 3091 3091 3091 3092 3092 3092 3092 3091 3092 3091 3091 3090 3089 3088 3087 3088 3089 3090 3091 3092 3093 3095 3097 3099 3101 3103 3105 3107 3109 3111 3112 3113 3115 3116 3117 3117 3118 3119 3120 3120 3121 3121 3121 3121 3121 3121 3121 3121 3121 3120 3120 3119 3119 3119
3090 3088 3088 3088 3089 3088 3089 3090 3089 3090 3090 3090 3090 3089 3089 3089 3090 3090 3088 3087 3088 3086 3082 3083 3085 3084 3084 3084 3085 3087 3088 3088 3088 3089 3089 3090 3090 3091 3090 3090 3090 3090 3090 3090 3089 3088 3088 3088 3089 3089 3090 3091 3092 3093 3095 3097 3098 3100 3102 3104 3106 3108 3109 3111 3112 3113 3114 3115 3116 3117 3118 3119 3119 3120 3120 3120 3120 3120 3120 3120 3120 3120 3119 3119 3119 3119
3089 3088 3086 3086 3088 3087 3087 3088 3088 3088 3088 3089 3088 3088 3088 3088 3087 3088 3087 3085 3084 3082 3079 3079 3081 3081 3081 3081 3082 3085 3086 3086 3086 3087 3088 3088 3089 3089 3089 3089 3089 3089 3089 3089 3089 3088 3088 3089 3089 3089 3089 3090 3091 3093 3094 3095 3096 3097 3099 3101 3103 3104 3106 3107 3108 3110 3111 3112 3113 3114 3116 3117 3117 3118 3119 3119 3119 3119 3119 3119 3119 3119 3118 3118 3118 3118
3088 3088 3085 3084 3086 3086 3086 3087 3086 3085 3086 3086 3086 3086 3087 3086 3085 3085 3085 3083 3082 3080 3078 3077 3077 3077 3078 3079 3081 3083 3084 3084 3085 3085 3086 3087 3087 3088 3088 3088 3088 3088 3088 3087 3088 3088 3088 3088 3089 3089 3090 3090 3091 3092 3093 3094 3095 3096 3097 3098 3099 3101 3102 3103 3104 3106 3108 3109 3110 3111 3113 3114 3115 3116 3117 3117 3117 3117 3117 3117 3117 3117 3117 3117 3117 3117
3087 3088 3085 3084 3084 3085 3084 3084 3084 3083 3083 3084 3084 3084 3084 3084 3084 3083 3082 3082 3081 3079 3078 3077 3074 3074 3076 3078 3080 3081 3082 3082 3083 3084 3085 3085 3086 3086 3086 3087 3087 3087 3087 3087 3087 3087 3088 3088 3088 3089 3090 3090 3091 3091 3092 3092 3093 3094 3095 3096 3097 3098 3099 3100 3102 3103 3105 3106 3106 3108 3109 3111 3112 3113 3114 3115 3115 3115 3116 3116 3116 3116 3116 3115 3115 3116
3086 3086 3085 3083 3083 3083 3082 3080 3081 3082 3082 3082 3083 3082 3082 3082 3083 3081 3078 3078 3080 3077 3076 3075 3073 3072 3075 3077 3078 3080 3080 3080 3081 3082 3083 3084 3084 3085 3085 3085 3085 3085 3085 3086 3086 3086 3087 3087 3087 3087 3088 3089 3090 3090 3091 3091 3091 3092 3093 3094 3095 3096 3097 3098 3100 3101 3102 3103 3104 3104 3106 3107 3108 3110 3111 3112 3112 3113 3113 3114 3114 3114 3113 3113 3113 3114
3084 3084 3084 3082 3081 3081 3079 3078 3079 3080 3080 3081 3080 3080 3081 3080 3080 3080 3076 3075 3078 3076 3075 3075 3073 3072 3074 3076 3077 3078 3078 3079 3080 3080 3081 3082 3083 3083 3084 3084 3084 3084 3084 3084 3084 3085 3085 3086 3086 3086 3086 3087 3088 3088 3088 3090 3091 3092 3093 3093 3093 3094 3095 3096 3098 3099 3100 3100 3101 3103 3103 3104 3105 3106 3107 3108 3109 3110 3110 3111 3111 3112 3111 3111 3111 3111
3082 3082 3081 3080 3079 3079 3078 3077 3078 3078 3078 3079 3079 3078 3079 3078 3078 3078 3076 3076 3076 3074 3075 3075 3072 3072 3074 3075 3076 3077 3077 3078 3078 3079 3080 3080 3081 3082 3082 3082 3083 3083 3083 3083 3083 3083 3083 3084 3084 3085 3085 3085 3086 3086 3086 3087 3089 3090 3091 3091 3092 3092 3093 3094 3096 3097 3098 3098 3099 3100 3101 3102 3102 3102 3103 3105 3106 3107 3107 3108 3108 3109 3109 3109 3108 3108
3080 3081 3080 3078 3076 3076 3075 3075 3075 3075 3075 3076 3077 3076 3076 3076 3077 3076 3076 3077 3075 3072 3073 3072 3069 3071 3073 3074 3076 3077 3076 3077 3077 3077 3078 3079 3079 3080 3080 3081 3081 3081 3082 3082 3082 3082 3082 3082 3083 3083 3083 3083 3084 3084 3085 3085 3086 3087 3088 3089 3090 3091 3091 3092 3093 3094 3094 3095 3096 3097 3098 3099 3100 3099 3099 3101 3102 3103 3104 3104 3105 3105 3106 3106 3105 3105
3079 3079 3079 3077 3075 3073 3073 3072 3072 3072 3073 3074 3074 3074 3074 3075 3075 3075 3075 3075 3072 3071 3072 3070 3067 3069 3072 3073 3075 3076 3076 3076 3076 3077 3077 3077 3078 3078 3079 3079 3079 3080 3080 3080 3080 3080 3080 3081 3081 3082 3082 3082 3082 3083 3083 3084 3085 3085 3086 3086 3087 3088 3088 3089 3090 3090 3091 3092 3094 3094 3094 3096 3096 3097 3097 3098 3098 3100 3101 3101 3101 3102 3102 3102 3102 3102
3077 3077 3076 3076 3074 3072 3071 3071 3071 3071 3072 3072 3073 3073 3073 3073 3073 3074 3073 3071 3070 3070 3069 3067 3067 3068 3070 3072 3073 3074 3075 3075 3075 3076 3076 3076 3076 3077 3077 3077 3078 3078 3078 3079 3079 3079 3079 3079 3080 3080 3081 3081 3081 3081 3082 3082 3083 3083 3084 3084 3085 3085 3086 3086 3087 3088 3089 3090 3091 3091 3091 3092 3093 3093 3095 3095 3095 3096 3097 3098 3098 3099 3098 3099 3098 3098
3075 3074 3073 3074 3073 3072 3071 3071 3071 3071 3070 3071 3071 3071 3072 3072 3071 3072 3070 3069 3070 3068 3064 3065 3067 3067 3067 3070 3071 3072 3073 3074 3074 3074 3074 3074 3074 3074 3075 3075 3076 3076 3076 3077 3077 3077 3077 3077 3078 3078 3078 3079 3079 3080 3080 3080 3081 3081 3082 3082 3083 3083 3084 3085 3086 3087 3087 3088 3088 3088 3089 3090 3090 3091 3092 3092 3092 3093 3094 3094 3095 3095 3095 3095 3095 3095
3072 3072 3071 3071 3071 3070 3070 3070 3069 3069 3069 3069 3069 3068 3069 3069 3069 3069 3067 3067 3069 3067 3063 3064 3066 3066 3066 3068 3070 3071 3071 3072 3072 3072 3072 3072 3072 3072 3072 3072 3073 3073 3073 3074 3074 3074 3074 3075 3075 3075 3076 3076 3076 3077 3077 3077 3078 3078 3079 3079 3080 3081 3081 3082 3083 3084 3085 3085 3086 3086 3087 3087 3088 3088 3089 3089 3089 3090 3090 3090 3090 3090 3091 3091 3091 3092
3070 3070 3069 3069 3069 3067 3067 3067 3067 3067 3066 3066 3065 3065 3066 3066 3066 3065 3065 3065 3066 3064 3063 3064 3063 3062 3064 3067 3068 3069 3069 3069 3070 3070 3069 3069 3069 3069 3069 3069 3070 3070 3070 3070 3071 3071 3071 3071 3072 3072 3072 3073 3073 3073 3074 3074 3074 3075 3076 3076 3076 3077 3078 3078 3079 3080 3080 3081 3082 3083 3083 3084 3084 3084 3085 3085 3086 3086 3086 3086 3086 3086 3086 3086 3087 3087
3068 3068 3067 3067 3066 3064 3064 3065 3064 3064 3063 3061 3061 3062 3062 3062 3062 3062 3061 3062 3062 3060 3061 3062 3059 3058 3061 3064 3064 3065 3065 3066 3066 3066 3066 3066 3066 3066 3066 3066 3066 3067 3066 3067 3067 3067 3067 3068 3068 3069 3069 3070 3070 3070 3070 3071 3071 3072 3072 3073 3073 3073 3073 3074 3074 3075 3075 3076 3076 3077 3078 3079 3079 3080 3080 3080 3081 3081 3081 3081 3081 3081 3081 3081 3082 3082
3066 3066 3065 3066 3063 3060 3061 3062 3061 3061 3060 3057 3056 3057 3058 3059 3058 3058 3058 3058 3058 3057 3058 3058 3056 3055 3057 3060 3060 3060 3061 3063 3063 3062 3062 3062 3062 3063 3063 3063 3063 3063 3063 3063 3063 3063 3064 3064 3065 3065 3066 3066 3067 3067 3067 3068 3068 3068 3069 3069 3069 3069 3069 3069 3070 3070 3070 3071 3071 3072 3073 3073 3074 3074 3075 3075 3075 3076 3076 3076 3076 3076 3076 3076 3076 3077
3064 3064 3064 3064 3061 3058 3059 3059 3058 3058 3056 3052 3051 3052 3054 3055 3054 3054 3055 3055 3055 3055 3055 3054 3053 3053 3053 3055 3056 3057 3057 3058 3059 3058 3057 3058 3059 3060 3060 3060 3059 3059 3059 3059 3060 3060 3060 3061 3061 3061 3062 3063 3063 3064 3064 3064 3065 3065 3065 3065 3065 3065 3065 3065 3066 3066 3066 3067 3067 3067 3068 3068 3068 3069 3069 3070 3070 3070 3071 3071 3071 3071 3071 3071 3072 3072
3061 3061 3061 3061 3059 3056 3057 3057 3057 3056 3052 3047 3047 3048 3050 3051 3051 3051 3051 3051 3050 3050 3050 3050 3050 3050 3049 3050 3052 3053 3053 3053 3054 3054 3054 3055 3055 3056 3056 3056 3055 3055 3056 3056 3056 3056 3056 3057 3058 3058 3059 3059 3060 3060 3061 3061 3061 3061 3062 3062 3061 3061 3061 3061 3062 3062 3063 3063 3063 3063 3064 3064 3064 3064 3064 3065 3065 3065 3066 3066 3066 3066 3066 3066 3067 3067
3058 3058 3058 3058 3057 3055 3055 3057 3056 3051 3046 3045 3045 3046 3047 3047 3048 3047 3047 3046 3046 3046 3046 3046 3046 3045 3045 3046 3047 3048 3048 3049 3050 3051 3051 3051 3051 3051 3052 3052 3052 3052 3052 3052 3052 3052 3053 3054 3054 3055 3056 3056 3056 3057 3057 3057 3057 3058 3058 3058 3058 3058 3058 3058 3058 3058 3059 3059 3060 3060 3060 3060 3060 3060 3060 3060 3061 3061 3061 3061 3061 3061 3062 3062 3062 3062
3055 3055 3056 3055 3055 3053 3053 3053 3051 3046 3043 3044 3044 3044 3044 3045 3045 3045 3045 3043 3043 3043 3043 3043 3042 3042 3041 3041 3043 3043 3044 3045 3046 3046 3046 3046 3047 3047 3047 3047 3047 3047 3047 3048 3048 3049 3050 3050 3051 3051 3052 3052 3053 3053 3053 3053 3053 3053 3054 3054 3054 3054 3054 3054 3054 3055 3055 3055 3055 3056 3056 3055 3055 3055 3056 3056 3056 3056 3057 3056 3057 3057 3057 3057 3058 3058
3052 3053 3053 3053 3052 3051 3049 3048 3045 3043 3042 3043 3042 3041 3042 3042 3042 3043 3043 3041 3040 3040 3041 3040 3040 3040 3039 3039 3039 3040 3041 3042 3043 3042 3041 3041 3042 3042 3042 3042 3042 3042 3043 3044 3045 3046 3046 3047 3047 3047 3048 3048 3049 3049 3049 3049 3049 3049 3049 3050 3050 3050 3050 3050 3050 3051 3051 3051 3051 3051 3051 3051 3051 3051 3051 3051 3051 3051 3052 3052 3052 3052 3052 3052 3053 3053
3049 3050 3051 3050 3049 3049 3048 3045 3043 3041 3040 3039 3039 3039 3039 3040 3040 3040 3041 3040 3038 3037 3037 3037 3038 3038 3038 3037 3036 3037 3039 3040 3041 3040 3037 3036 3037 3038 3038 3039 3039 3039 3040 3040 3041 3042 3042 3042 3043 3043 3044 3044 3044 3045 3045 3045 3044 3044 3044 3045 3045 3046 3045 3046 3046 3046 3047 3047 3046 3046 3046 3046 3046 3046 3046 3046 3046 3046 3046 3046 3046 3046 3046 3047 3047 3047
3047 3048 3049 3049 3047 3047 3046 3044 3041 3040 3038 3037 3037 3037 3037 3038 3039 3039 3039 3037 3035 3034 3035 3035 3035 3036 3035 3034 3034 3036 3036 3037 3039 3039 3034 3032 3034 3035 3035 3035 3036 3036 3036 3037 3037 3037 3038 3038 3039 3039 3040 3040 3040 3040 3040 3040 3039 3039 3039 3039 3040 3040 3040 3041 3041 3042 3042 3042 3042 3042 3042 3041 3041 3041 3041 3041 3041 3041 3041 3041 3040 3040 3041 3041 3041 3042
3045 3045 3046 3046 3045 3044 3044 3042 3039 3038 3037 3035 3035 3035 3036 3036 3037 3038 3036 3033 3031 3032 3032 3032 3033 3033 3033 3032 3032 3033 3034 3034 3036 3035 3030 3030 3032 3032 3032 3032 3032 3032 3033 3033 3033 3033 3033 3034 3035 3035 3035 3036 3036 3036 3036 3035 3035 3034 3034 3034 3034 3034 3035 3035 3036 3036 3036 3036 3036 3036 3036 3036 3036 3036 3035 3035 3035 3035 3035 3035 3035 3035 3036 3036 3036 3037
3043 3044 3044 3043 3042 3042 3041 3039 3037 3037 3035 3033 3032 3033 3033 3034 3036 3035 3033 3030 3030 3030 3029 3029 3029 3030 3030 3030 3029 3030 3031 3031 3030 3028 3027 3029 3029 3029 3029 3029 3029 3029 3029 3029 3029 3029 3029 3029 3030 3030 3031 3031 3031 3031 3031 3030 3030 3029 3029 3029 3029 3029 3030 3030 3030 3030 3030 3030 3030 3030 3030 3030 3030 3030 3030 3030 3029 3029 3029 3030 3030 3030 3030 3031 3031 3032
3042 3042 3041 3041 3040 3039 3038 3037 3036 3034 3032 3030 3030 3031 3032 3033 3033 3031 3029 3028 3029 3028 3027 3027 3027 3027 3027 3027 3026 3026 3026 3026 3024 3024 3025 3025 3025 3025 3025 3025 3025 3024 3024 3024 3024 3024 3024 3024 3024 3025 3025 3026 3026 3026 3026 3025 3024 3024 3024 3024 3024 3024 3025 3025 3025 3024 3024 3024 3024 3024 3024 3024 3024 3024 3024 3024 3024 3024 3024 3024 3024 3025 3025 3026 3026 3027
3041 3040 3039 3038 3038 3037 3036 3035 3034 3032 3030 3029 3029 3030 3030 3030 3029 3027 3027 3027 3026 3025 3025 3025 3024 3024 3023 3023 3023 3022 3022 3021 3020 3020 3021 3021 3021 3021 3021 3021 3020 3020 3020 3020 3020 3020 3020 3019 3019 3019 3019 3020 3020 3020 3020 3019 3018 3018 3018 3017 3018 3018 3019 3019 3018 3018 3018 3017 3017 3018 3018 3018 3018 3018 3018 3018 3018 3018 3018 3018 3019 3019 3020 3021 3022 3023
3039 3038 3037 3036 3036 3035 3033 3032 3031 3030 3028 3028 3028 3028 3028 3027 3026 3025 3024 3024 3024 3023 3023 3021 3021 3021 3020 3019 3019 3019 3018 3017 3017 3017 3016 3016 3016 3016 3015 3015 3016 3015 3015 3015 3015 3015 3014 3014 3013 3013 3013 3013 3014 3014 3014 3013 3012 3011 3011 3011 3011 3012 3012 3012 3011 3011 3011 3010 3010 3011 3012 3012 3011 3012 3012 3012 3012 3012 3012 3013 3014 3015 3016 3016 3017 3018
3036 3035 3035 3034 3033 3032 3031 3029 3028 3027 3027 3027 3027 3026 3025 3024 3023 3023 3022 3021 3021 3021 3020 3018 3017 3017 3016 3015 3015 3014 3014 3013 3012 3012 3011 3011 3011 3011 3010 3010 3010 3010 3010 3009 3009 3009 3008 3008 3007 3006 3005 3006 3006 3006 3006 3006 3005 3003 3003 3003 3004 3004 3004 3004 3004 3004 3003 3004 3004 3005 3005 3005 3005 3006 3006 3006 3006 3007 3007 3008 3009 3010 3011 3012 3013 3013
3034 3033 3032 3031 3030 3029 3028 3027 3026 3026 3026 3026 3025 3024 3023 3021 3021 3020 3019 3018 3017 3017 3016 3015 3014 3013 3012 3011 3010 3010 3009 3009 3008 3007 3006 3006 3005 3005 3005 3004 3004 3004 3004 3003 3003 3002 3002 3001 3000 2999 2998 2998 2999 2999 2999 2998 2997 2996 2995 2995 2996 2996 2997 2997 2997 2997 2997 2997 2998 2998 2998 2998 2999 3000 3000 3000 3000 3002 3002 3004 3005 3006 3007 3008 3008 3008
3032 3030 3029 3029 3028 3027 3025 3024 3024 3023 3023 3023 3021 3020 3020 3019 3018 3017 3015 3014 3013 3012 3011 3010 3009 3009 3008 3007 3006 3005 3004 3004 3003 3002 3002 3001 3000 3000 2999 2999 2999 2999 2998 2997 2997 2997 2996 2994 2993 2992 2991 2991 2991 2991 2991 2991 2990 2989 2989 2989 2989 2989 2990 2990 2990 2990 2991 2991 2992 2992 2992 2992 2993 2993 2994 2994 2996 2997 2998 2999 3001 3002 3003 3004 3004 3005
3030 3027 3027 3027 3026 3025 3023 3022 3022 3021 3020 3019 3018 3017 3016 3015 3014 3012 3011 3010 3008 3007 3006 3006 3005 3004 3003 3002 3002 3001 3000 3000 2999 2998 2997 2996 2995 2995 2994 2994 2993 2993 2992 2992 2991 2991 2990 2988 2987 2986 2985 2984 2985 2985 2984 2984 2984 2983 2983 2983 2983 2983 2983 2982 2983 2984 2985 2985 2986 2986 2986 2986 2986 2987 2988 2990 2991 2992 2994 2995 2997 2998 2999 3000 3000 3001
3027 3026 3025 3025 3023 3022 3021 3020 3019 3018 3017 3016 3015 3014 3013 3011 3009 3008 3006 3005 3004 3003 3002 3001 3000 2999 2998 2997 2997 2996 2995 2994 2994 2993 2992 2991 2990 2990 2989 2988 2988 2987 2986 2986 2985 2985 2983 2982 2981 2980 2979 2978 2979 2978 2978 2977 2977 2977 2977 2977 2977 2977 2977 2976 2977 2978 2979 2980 2981 2981 2981 2981 2981 2982 2984 2985 2987 2988 2990 2992 2993 2994 2995 2996 2997 2998
3025 3024 3024 3023 3021 3020 3019 3018 3017 3014 3012 3011 3011 3010 3008 3007 3005 3003 3002 3001 3000 2998 2997 2995 2994 2993 2992 2992 2992 2991 2989 2989 2989 2988 2986 2985 2984 2984 2983 2982 2982 2981 2980 2980 2979 2978 2977 2976 2975 2974 2973 2973 2973 2972 2971 2971 2971 2972 2972 2971 2971 2971 2971 2971 2971 2972 2973 2974 2975 2975 2976 2977 2977 2978 2979 2981 2983 2984 2986 2988 2990 2991 2992 2993 2995 2996
3023 3022 3021 3020 3018 3017 3016 3014 3013 3011 3008 3007 3006 3005 3004 3003 3001 2999 2997 2996 2995 2993 2991 2989 2987 2987 2987 2987 2987 2986 2984 2983 2983 2982 2981 2980 2979 2978 2977 2977 2976 2975 2974 2974 2973 2972 2971 2970 2969 2968 2967 2967 2966 2966 2965 2965 2965 2965 2965 2965 2965 2966 2966 2965 2965 2966 2967 2968 2969 2970 2972 2973 2974 2975 2976 2978 2980 2981 2983 2985 2987 2988 2990 2991 2993 2995